Location: Newark
(49.8667°N, 4.3500°E)
Time: 13:43:47
(UTC+00:00)

OTV 5 (USA 277) - Visible Passes

Search period start: 20 August 2019 00:00
Search period end: 30 August 2019 00:00
Orbit: 305 x 329 km, 54.5° (Epoch: 11 August)

Date Brightness Start Highest point End Pass type
(mag) Time Alt. Az. Time Alt. Az. Time Alt. Az.
20 Aug ? 02:11:00 34° N 02:11:16 35° NNE 02:13:45 10° E visible
20 Aug ? 03:43:05 10° WNW 03:45:39 48° SSW 03:48:14 10° SE visible
21 Aug ? 02:25:53 56° NNE 02:25:56 56° NNE 02:28:33 10° ESE visible
21 Aug ? 03:57:55 10° W 04:00:04 22° SW 04:02:13 10° SSE visible
22 Aug ? 02:41:20 39° SE 02:41:20 39° SE 02:43:09 10° SE visible
24 Aug ? 19:30:47 10° S 19:32:15 14° SE 19:33:07 12° ESE visible
24 Aug ? 21:03:34 10° WSW 21:04:05 14° WSW 21:04:05 14° WSW visible
25 Aug ? 19:44:14 10° SSW 19:46:36 29° SE 19:48:17 15° E visible
25 Aug ? 21:18:16 10° W 21:19:13 19° W 21:19:13 19° W visible
26 Aug ? 19:58:26 10° SW 20:01:04 66° SSE 20:02:57 17° ENE visible
26 Aug ? 21:33:04 10° WNW 21:33:52 16° WNW 21:33:52 16° WNW visible
27 Aug ? 20:13:00 10° WSW 20:15:38 61° NNW 20:17:19 19° NE visible
27 Aug ? 21:47:54 10° WNW 21:48:13 12° WNW 21:48:13 12° WNW visible
28 Aug ? 20:27:47 10° W 20:30:17 37° NNW 20:31:29 23° NE visible
29 Aug ? 19:07:47 10° WSW 19:10:27 85° NNW 19:13:07 10° ENE visible
29 Aug ? 20:42:36 10° WNW 20:45:01 29° N 20:45:31 27° NNE visible
